User: anonymous   Login
Location: Unspecified
(0.0000°N, 0.0000°E)
Time: 14:27:48
(UTC+01:00)
Language:

ARIANE 5 R/B - Orbit

View from above orbital plane
View from above orbital plane
View from above satellite
View from above satellite

Ground track
Ground track

The orbit data is extracted from the following two-line orbital elements,

1 28379U 04027B   14355.65767473 -.00000222  00000-0  84294-3 0  7406
2 28379 006.9852 280.2507 7300005 183.6674 015.2222 02.07920850 79233
Epoch (UTC): 21 December 2014 15:47:03
Eccentricity: 0.7300005
inclination: 6.9852°
perigee height: 623 km
apogee height: 38480 km
right ascension of ascending node: 280.2507°
argument of perigee: 183.6674°
revolutions per day: 2.07920850
mean anomaly at epoch: 15.2222°
orbit number at epoch: 7923

The dashed part of the orbit path shows where the satellite is in the earth's shadow,  

DLR